Location: Ab? ar R?sh Ba?r?
(24.1861°N, 32.8847°E)
Time: 11:16:11
(UTC+00:00)

OAO 3 Rocket - Pass Details

Date: 24 October 2021
Orbit: 628 x 682 km, 35.0° (Epoch: 03 December)

Event Time Altitude Azimuth Distance (km) Brightness Sun altitude
Rises 15:59:44 0° 261° (W) 2,938 8.8 -11.0°
Reaches altitude 10° 16:02:10 10° 268° (W) 2,039 7.3 -11.5°
Maximum altitude 16:06:42 43° 340° (NNW) 918 4.0 -12.5°
Enters shadow 16:10:31 14° 48° (NE) 1,797 4.9 -13.4°
